Time,TemperatureF,DewpointF,PressureIn,WindDirection,WindDirectionDegrees,WindSpeedMPH,WindSpeedGustMPH,Humidity,HourlyPrecipIn,Conditions,Clouds,dailyrainin,SoftwareType,DateUTC
2013-08-21 00:13:00,73.3,72.0,30.07,East,95,0.0,-999.0,95,-99.99,,,0.00,weatherlink.com 1.10,2013-08-21 04:13:00,
2013-08-21 00:28:00,73.3,72.0,30.07,East,95,0.0,-999.0,95,-99.99,,,0.00,weatherlink.com 1.10,2013-08-21 04:28:00,
2013-08-21 00:43:00,73.3,72.0,30.07,East,95,0.0,-999.0,95,-99.99,,,0.00,weatherlink.com 1.10,2013-08-21 04:43:00,
2013-08-21 00:58:00,73.3,72.0,30.07,East,95,0.0,-999.0,95,-99.99,,,0.00,weatherlink.com 1.10,2013-08-21 04:58:00,
2013-08-21 01:13:00,73.3,72.0,30.07,East,95,0.0,-999.0,95,-99.99,,,0.00,weatherlink.com 1.10,2013-08-21 05:13:00,
2013-08-21 01:28:00,73.5,72.0,30.07,East,95,0.0,-999.0,95,-99.99,,,0.00,weatherlink.com 1.10,2013-08-21 05:28:00,
2013-08-21 01:43:00,73.3,72.0,30.06,East,95,0.0,-999.0,95,-99.99,,,0.00,weatherlink.com 1.10,2013-08-21 05:43:00,
2013-08-21 01:58:00,73.2,72.0,30.06,East,95,0.0,-999.0,95,-99.99,,,0.00,weatherlink.com 1.10,2013-08-21 05:58:00,
2013-08-21 02:13:00,73.0,72.0,30.05,East,95,0.0,-999.0,96,-99.99,,,0.00,weatherlink.com 1.10,2013-08-21 06:13:00,
2013-08-21 02:28:00,72.8,72.0,30.05,East,95,0.0,-999.0,96,-99.99,,,0.00,weatherlink.com 1.10,2013-08-21 06:28:00,
2013-08-21 02:43:00,72.8,72.0,30.05,East,95,0.0,-999.0,96,-99.99,,,0.00,weatherlink.com 1.10,2013-08-21 06:43:00,
2013-08-21 02:58:00,72.7,72.0,30.05,East,95,0.0,-999.0,96,-99.99,,,0.00,weatherlink.com 1.10,2013-08-21 06:58:00,
2013-08-21 03:13:00,72.7,72.0,30.05,East,95,0.0,-999.0,96,-99.99,,,0.00,weatherlink.com 1.10,2013-08-21 07:13:00,
2013-08-21 03:28:00,72.5,71.0,30.05,East,95,0.0,-999.0,96,-99.99,,,0.00,weatherlink.com 1.10,2013-08-21 07:28:00,
2013-08-21 03:43:00,72.5,71.0,30.05,East,95,0.0,-999.0,96,-99.99,,,0.00,weatherlink.com 1.10,2013-08-21 07:43:00,
2013-08-21 03:58:00,72.5,71.0,30.05,East,95,0.0,-999.0,96,-99.99,,,0.00,weatherlink.com 1.10,2013-08-21 07:58:00,
2013-08-21 04:13:00,72.5,71.0,30.05,East,95,0.0,-999.0,96,-99.99,,,0.00,weatherlink.com 1.10,2013-08-21 08:13:00,
2013-08-21 04:28:00,72.3,71.0,30.05,East,95,0.0,-999.0,96,-99.99,,,0.01,weatherlink.com 1.10,2013-08-21 08:28:00,
2013-08-21 04:43:00,72.3,71.0,30.05,East,95,0.0,-999.0,96,-99.99,,,0.01,weatherlink.com 1.10,2013-08-21 08:43:00,
2013-08-21 04:58:00,72.1,71.0,30.05,East,95,0.0,-999.0,96,-99.99,,,0.01,weatherlink.com 1.10,2013-08-21 08:58:00,
2013-08-21 05:13:00,72.1,71.0,30.05,East,95,0.0,-999.0,96,-99.99,,,0.01,weatherlink.com 1.10,2013-08-21 09:13:00,
2013-08-21 05:28:00,72.1,71.0,30.05,East,95,0.0,-999.0,96,-99.99,,,0.01,weatherlink.com 1.10,2013-08-21 09:28:00,
2013-08-21 05:43:00,72.0,71.0,30.05,East,95,0.0,-999.0,97,-99.99,,,0.01,weatherlink.com 1.10,2013-08-21 09:43:00,
2013-08-21 05:58:00,72.0,71.0,30.05,East,95,0.0,-999.0,97,-99.99,,,0.01,weatherlink.com 1.10,2013-08-21 09:58:00,
2013-08-21 06:13:00,72.0,71.0,30.05,East,95,0.0,-999.0,97,-99.99,,,0.01,weatherlink.com 1.10,2013-08-21 10:13:00,
2013-08-21 06:29:00,72.0,71.0,30.06,East,95,0.0,-999.0,97,-99.99,,,0.01,weatherlink.com 1.10,2013-08-21 10:29:00,
2013-08-21 06:43:00,72.0,71.0,30.07,East,95,0.0,-999.0,97,-99.99,,,0.01,weatherlink.com 1.10,2013-08-21 10:43:00,
2013-08-21 06:58:00,72.0,71.0,30.07,East,95,0.0,-999.0,97,-99.99,,,0.01,weatherlink.com 1.10,2013-08-21 10:58:00,
2013-08-21 07:13:00,72.1,71.0,30.08,East,95,0.0,-999.0,97,-99.99,,,0.01,weatherlink.com 1.10,2013-08-21 11:13:00,
2013-08-21 07:28:00,72.5,72.0,30.08,East,95,0.0,-999.0,98,-99.99,,,0.01,weatherlink.com 1.10,2013-08-21 11:28:00,
2013-08-21 07:43:00,73.0,72.0,30.09,East,95,0.0,-999.0,98,-99.99,,,0.01,weatherlink.com 1.10,2013-08-21 11:43:00,
2013-08-21 07:58:00,73.3,72.0,30.09,East,95,0.0,-999.0,97,-99.99,,,0.01,weatherlink.com 1.10,2013-08-21 11:58:00,
2013-08-21 08:13:00,73.3,72.0,30.09,East,95,0.0,-999.0,97,-99.99,,,0.01,weatherlink.com 1.10,2013-08-21 12:13:00,
2013-08-21 08:29:00,73.7,73.0,30.09,East,93,0.0,-999.0,97,-99.99,,,0.01,weatherlink.com 1.10,2013-08-21 12:29:00,
2013-08-21 08:44:00,74.0,73.0,30.09,East,96,0.0,-999.0,96,-99.99,,,0.01,weatherlink.com 1.10,2013-08-21 12:44:00,
2013-08-21 08:59:00,74.6,73.0,30.10,East,95,1.0,-999.0,96,-99.99,,,0.01,weatherlink.com 1.10,2013-08-21 12:59:00,
2013-08-21 09:14:00,74.6,73.0,30.10,East,85,0.0,-999.0,94,-99.99,,,0.01,weatherlink.com 1.10,2013-08-21 13:14:00,
2013-08-21 09:29:00,76.0,73.0,30.09,East,86,0.0,-999.0,91,-99.99,,,0.01,weatherlink.com 1.10,2013-08-21 13:29:00,
2013-08-21 09:44:00,76.5,73.0,30.09,East,82,0.0,-999.0,89,-99.99,,,0.01,weatherlink.com 1.10,2013-08-21 13:44:00,
2013-08-21 09:59:00,77.2,74.0,30.10,East,89,0.0,-999.0,88,-99.99,,,0.01,weatherlink.com 1.10,2013-08-21 13:59:00,
2013-08-21 10:14:00,77.4,73.0,30.11,East,89,0.0,-999.0,86,-99.99,,,0.01,weatherlink.com 1.10,2013-08-21 14:14:00,
2013-08-21 10:29:00,77.6,74.0,30.11,East,90,0.0,-999.0,87,-99.99,,,0.01,weatherlink.com 1.10,2013-08-21 14:29:00,
2013-08-21 10:44:00,78.5,74.0,30.11,East,90,0.0,-999.0,87,-99.99,,,0.01,weatherlink.com 1.10,2013-08-21 14:44:00,
2013-08-21 10:59:00,78.8,74.0,30.11,East,89,0.0,-999.0,85,-99.99,,,0.01,weatherlink.com 1.10,2013-08-21 14:59:00,
2013-08-21 11:14:00,79.2,74.0,30.11,East,90,0.0,-999.0,84,-99.99,,,0.01,weatherlink.com 1.10,2013-08-21 15:14:00,
2013-08-21 11:29:00,79.9,74.0,30.11,East,90,0.0,-999.0,83,-99.99,,,0.01,weatherlink.com 1.10,2013-08-21 15:29:00,
2013-08-21 11:44:00,80.3,74.0,30.10,East,90,0.0,-999.0,81,-99.99,,,0.01,weatherlink.com 1.10,2013-08-21 15:44:00,
2013-08-21 11:59:00,81.1,74.0,30.10,East,90,0.0,-999.0,79,-99.99,,,0.01,weatherlink.com 1.10,2013-08-21 15:59:00,
2013-08-21 12:14:00,81.4,74.0,30.09,East,89,0.0,-999.0,79,-99.99,,,0.01,weatherlink.com 1.10,2013-08-21 16:14:00,
2013-08-21 12:29:00,82.0,75.0,30.08,East,89,0.0,-999.0,78,-99.99,,,0.01,weatherlink.com 1.10,2013-08-21 16:29:00,
2013-08-21 12:44:00,82.6,75.0,30.08,East,90,0.0,-999.0,78,-99.99,,,0.01,weatherlink.com 1.10,2013-08-21 16:44:00,
2013-08-21 12:59:00,83.4,76.0,30.08,East,89,0.0,-999.0,77,-99.99,,,0.01,weatherlink.com 1.10,2013-08-21 16:59:00,
2013-08-21 13:14:00,82.6,76.0,30.07,East,88,0.0,-999.0,79,-99.99,,,0.08,weatherlink.com 1.10,2013-08-21 17:14:00,
2013-08-21 13:29:00,81.2,76.0,30.07,East,88,0.0,-999.0,85,-99.99,,,0.08,weatherlink.com 1.10,2013-08-21 17:29:00,
2013-08-21 13:44:00,80.3,77.0,30.06,North,350,0.0,-999.0,88,-99.99,,,0.09,weatherlink.com 1.10,2013-08-21 17:44:00,
2013-08-21 14:14:00,80.7,77.0,30.05,North,0,0.0,-999.0,87,-99.99,,,0.09,weatherlink.com 1.10,2013-08-21 18:14:00,
2013-08-21 14:29:00,80.5,76.0,30.04,North,0,0.0,-999.0,87,-99.99,,,0.09,weatherlink.com 1.10,2013-08-21 18:29:00,
2013-08-21 14:44:00,81.2,76.0,30.03,NE,37,0.0,-999.0,83,-99.99,,,0.09,weatherlink.com 1.10,2013-08-21 18:44:00,
2013-08-21 14:59:00,82.0,78.0,30.02,NE,37,0.0,-999.0,87,-99.99,,,0.09,weatherlink.com 1.10,2013-08-21 18:59:00,
2013-08-21 15:14:00,82.0,78.0,30.02,NE,37,0.0,-999.0,87,-99.99,,,0.09,weatherlink.com 1.10,2013-08-21 19:14:00,
2013-08-21 15:29:00,83.0,76.0,30.02,NE,44,0.0,-999.0,80,-99.99,,,0.09,weatherlink.com 1.10,2013-08-21 19:29:00,
2013-08-21 15:44:00,82.8,78.0,30.02,NE,44,0.0,-999.0,84,-99.99,,,0.09,weatherlink.com 1.10,2013-08-21 19:44:00,
2013-08-21 15:59:00,81.8,78.0,30.01,NE,44,0.0,-999.0,87,-99.99,,,0.11,weatherlink.com 1.10,2013-08-21 19:59:00,
2013-08-21 16:14:00,80.7,77.0,30.02,NE,44,0.0,-999.0,89,-99.99,,,0.11,weatherlink.com 1.10,2013-08-21 20:14:00,
2013-08-21 16:29:00,80.1,77.0,30.01,NE,44,0.0,-999.0,91,-99.99,,,0.11,weatherlink.com 1.10,2013-08-21 20:29:00,
2013-08-21 16:44:00,77.2,74.0,30.01,NE,56,0.0,-999.0,90,-99.99,,,0.11,weatherlink.com 1.10,2013-08-21 20:44:00,
2013-08-21 16:59:00,76.1,73.0,30.02,NE,56,0.0,-999.0,89,-99.99,,,0.11,weatherlink.com 1.10,2013-08-21 20:59:00,
2013-08-21 17:14:00,75.4,73.0,30.02,ENE,58,0.0,-999.0,92,-99.99,,,0.14,weatherlink.com 1.10,2013-08-21 21:14:00,
2013-08-21 17:29:00,74.9,73.0,30.04,ENE,73,0.0,-999.0,92,-99.99,,,0.23,weatherlink.com 1.10,2013-08-21 21:29:00,
2013-08-21 17:44:00,74.2,72.0,30.04,ENE,73,0.0,-999.0,92,-99.99,,,0.24,weatherlink.com 1.10,2013-08-21 21:44:00,
2013-08-21 17:59:00,72.8,70.0,30.04,SSW,192,0.0,-999.0,92,-99.99,,,0.26,weatherlink.com 1.10,2013-08-21 21:59:00,
2013-08-21 18:14:00,71.5,69.0,30.01,East,82,0.0,-999.0,92,-99.99,,,0.26,weatherlink.com 1.10,2013-08-21 22:14:00,
2013-08-21 18:29:00,71.3,70.0,30.01,East,82,0.0,-999.0,94,-99.99,,,0.26,weatherlink.com 1.10,2013-08-21 22:29:00,
2013-08-21 18:44:00,72.0,71.0,30.00,East,82,0.0,-999.0,95,-99.99,,,0.26,weatherlink.com 1.10,2013-08-21 22:44:00,
2013-08-21 18:59:00,71.8,70.0,30.00,East,82,0.0,-999.0,95,-99.99,,,0.26,weatherlink.com 1.10,2013-08-21 22:59:00,
2013-08-21 19:14:00,71.8,71.0,30.00,East,82,0.0,-999.0,96,-99.99,,,0.26,weatherlink.com 1.10,2013-08-21 23:14:00,
2013-08-21 19:29:00,71.8,71.0,29.99,East,82,0.0,-999.0,96,-99.99,,,0.26,weatherlink.com 1.10,2013-08-21 23:29:00,
2013-08-21 19:44:00,71.5,70.0,29.99,East,82,0.0,-999.0,96,-99.99,,,0.26,weatherlink.com 1.10,2013-08-21 23:44:00,
2013-08-21 19:59:00,71.5,70.0,29.99,East,82,0.0,-999.0,96,-99.99,,,0.26,weatherlink.com 1.10,2013-08-21 23:59:00,
2013-08-21 20:14:00,71.3,70.0,29.99,East,82,0.0,-999.0,96,-99.99,,,0.26,weatherlink.com 1.10,2013-08-22 00:14:00,
2013-08-21 20:29:00,71.3,70.0,29.99,East,82,0.0,-999.0,96,-99.99,,,0.26,weatherlink.com 1.10,2013-08-22 00:29:00,
2013-08-21 20:44:00,71.1,70.0,29.99,East,82,0.0,-999.0,96,-99.99,,,0.26,weatherlink.com 1.10,2013-08-22 00:44:00,
2013-08-21 20:59:00,71.1,70.0,30.01,East,82,0.0,-999.0,97,-99.99,,,0.26,weatherlink.com 1.10,2013-08-22 00:59:00,
2013-08-21 21:14:00,71.3,70.0,30.01,East,82,0.0,-999.0,97,-99.99,,,0.26,weatherlink.com 1.10,2013-08-22 01:14:00,
2013-08-21 21:29:00,71.3,70.0,30.04,East,82,0.0,-999.0,97,-99.99,,,0.26,weatherlink.com 1.10,2013-08-22 01:29:00,
2013-08-21 21:44:00,71.5,71.0,30.04,East,82,0.0,-999.0,97,-99.99,,,0.26,weatherlink.com 1.10,2013-08-22 01:44:00,
2013-08-21 21:59:00,71.5,71.0,30.04,East,82,0.0,-999.0,97,-99.99,,,0.26,weatherlink.com 1.10,2013-08-22 01:59:00,
2013-08-21 22:14:00,71.3,70.0,30.03,East,82,0.0,-999.0,97,-99.99,,,0.26,weatherlink.com 1.10,2013-08-22 02:14:00,
2013-08-21 22:29:00,71.1,70.0,30.03,East,82,0.0,-999.0,97,-99.99,,,0.26,weatherlink.com 1.10,2013-08-22 02:29:00,
2013-08-21 22:44:00,70.9,70.0,30.04,East,82,0.0,-999.0,97,-99.99,,,0.26,weatherlink.com 1.10,2013-08-22 02:44:00,
2013-08-21 22:59:00,70.8,70.0,30.04,East,82,0.0,-999.0,97,-99.99,,,0.26,weatherlink.com 1.10,2013-08-22 02:59:00,
2013-08-21 23:14:00,70.6,70.0,30.04,East,82,0.0,-999.0,97,-99.99,,,0.26,weatherlink.com 1.10,2013-08-22 03:14:00,
2013-08-21 23:29:00,70.6,70.0,30.04,East,82,0.0,-999.0,98,-99.99,,,0.26,weatherlink.com 1.10,2013-08-22 03:29:00,
2013-08-21 23:45:00,70.4,70.0,30.03,East,82,0.0,-999.0,98,-99.99,,,0.26,weatherlink.com 1.10,2013-08-22 03:45:00,